Weather reports worldwide

Advertisment
Heraklion, Greece (16754): temperature & dewpoint: 12.01.2021 09:00:00 - 18.01.2021 09:00:00 (EET)Heraklion, Greece (16754): wind speed: 12.01.2021 09:00:00 - 18.01.2021 09:00:00 (EET)Heraklion, Greece (16754): wind direction: 12.01.2021 09:00:00 - 18.01.2021 09:00:00 (EET)Heraklion, Greece (16754): reduced air pressure: 12.01.2021 09:00:00 - 18.01.2021 09:00:00 (EET)Heraklion, Greece (16754): visibility: 12.01.2021 09:00:00 - 18.01.2021 09:00:00 (EET)
Date & Time tt [°C] td [°C] ff [km/h] ff [kn] dd ppp [hPa] vv [km]
18.01.2021 09:00:00 7,0 5,0 8 4 S - 10
18.01.2021 08:00:00 7,0 2,7 13 7 SSE 1014,0 10
18.01.2021 07:00:00 7,0 3,0 16 9 S - 10
18.01.2021 06:00:00 5,0 3,0 16 9 S - 10
18.01.2021 05:00:00 4,8 2,3 18 10 S 1015,5 10
18.01.2021 04:00:00 5,0 2,0 15 8 S - 10
18.01.2021 03:00:00 5,0 2,0 13 7 S - 10
18.01.2021 02:00:00 4,6 3,1 13 7 S 1015,9 10
18.01.2021 01:00:00 5,0 3,0 11 6 S - 10
18.01.2021 00:00:00 5,0 3,0 11 6 S - 10
17.01.2021 23:00:00 5,4 3,0 13 7 S 1016,3 10
17.01.2021 22:00:00 6,0 4,0 11 6 S - 10
17.01.2021 21:00:00 7,0 4,0 13 7 SSE - 10
17.01.2021 20:00:00 8,6 3,5 21 11 WNW 1015,9 10
17.01.2021 19:00:00 9,0 4,0 22 12 WNW - 10
17.01.2021 18:00:00 9,0 4,0 22 12 NW - 10
17.01.2021 17:00:00 9,0 4,0 26 14 NW 1014,5 10
17.01.2021 16:00:00 9,0 5,0 28 15 NW - 10
17.01.2021 15:00:00 9,0 6,0 28 15 NW - 10
17.01.2021 14:00:00 9,8 5,4 29 16 NW 1013,0 10
17.01.2021 13:00:00 10,0 6,0 28 15 NW - 10
17.01.2021 12:00:00 9,0 6,0 22 12 NW - 10
17.01.2021 11:00:00 9,0 6,4 29 16 W 1012,7 10
17.01.2021 10:00:00 7,0 6,0 24 13 W - 10
17.01.2021 09:00:00 7,0 6,0 26 14 WSW - 9
17.01.2021 08:00:00 7,6 5,8 28 15 WNW 1011,4 9
17.01.2021 07:00:00 7,0 6,0 16 9 WNW - 10
17.01.2021 06:00:00 8,0 8,0 18 10 NW - 8
17.01.2021 05:00:00 10,2 7,7 29 16 WNW 1009,1 10
17.01.2021 04:00:00 10,0 8,0 26 14 WNW - 10
17.01.2021 03:00:00 10,0 8,0 26 14 NW - 10
17.01.2021 02:00:00 10,2 8,2 26 14 WNW 1008,3 9
17.01.2021 01:00:00 10,0 8,0 22 12 NW - 8
17.01.2021 00:00:00 10,0 9,0 16 9 NW - 7
16.01.2021 23:00:00 10,8 9,6 18 10 NW 1007,9 8
16.01.2021 22:00:00 10,0 10,0 13 7 WSW - 8
16.01.2021 21:00:00 11,0 9,0 9 5 SW - 10
16.01.2021 20:00:00 10,8 9,6 9 5 W 1007,3 10
16.01.2021 19:00:00 11,0 9,0 11 6 W - 10
16.01.2021 18:00:00 11,0 10,0 22 12 W - 10
16.01.2021 17:00:00 11,8 9,4 34 18 W 1005,4 10
16.01.2021 16:00:00 13,0 9,0 41 22 WNW - 10
16.01.2021 15:00:00 13,0 10,0 48 26 WNW - 10
16.01.2021 14:00:00 16,0 12,0 37 20 WNW 1003,3 10
16.01.2021 13:00:00 15,0 12,0 11 6 NNW - 10
16.01.2021 12:00:00 16,0 12,0 13 7 WNW - 10
16.01.2021 11:00:00 16,2 11,4 21 11 SW 1005,0 10
16.01.2021 10:00:00 14,0 11,0 16 9 S - 10
16.01.2021 09:00:00 13,0 10,0 31 17 S - 10
16.01.2021 08:00:00 12,2 10,3 34 18 SSE 1006,2 10
16.01.2021 07:00:00 10,0 9,0 11 6 S - 10
16.01.2021 06:00:00 10,0 9,0 11 6 SSE - 10
16.01.2021 05:00:00 11,0 9,0 8 4 S 1010,0 10
16.01.2021 04:00:00 11,0 9,0 8 4 WSW - 10
16.01.2021 03:00:00 11,0 9,0 8 4 WSW - 10
16.01.2021 02:00:00 11,0 9,0 8 4 WSW 1010,5 10
16.01.2021 01:00:00 11,0 10,0 8 4 SSW - 10
16.01.2021 00:00:00 11,0 10,0 9 5 SSW - 10
15.01.2021 23:00:00 11,0 10,2 8 4 W 1011,6 10
15.01.2021 22:00:00 11,0 10,0 0 0 N - 9
15.01.2021 21:00:00 11,0 10,0 0 0 N - 9
15.01.2021 20:00:00 11,4 9,8 0 0 N 1011,9 9
15.01.2021 19:00:00 12,0 10,0 11 6 ENE - 9
15.01.2021 18:00:00 11,0 10,0 13 7 ENE - 9
15.01.2021 17:00:00 11,6 10,4 18 10 NE 1011,4 6
15.01.2021 16:00:00 12,0 11,0 18 10 NE - 7
15.01.2021 15:00:00 13,0 11,0 26 14 NE - 9
15.01.2021 14:00:00 12,6 10,7 29 16 NE 1010,7 8
15.01.2021 13:00:00 15,0 13,0 34 18 NE - 8
15.01.2021 12:00:00 16,0 13,0 13 7 WNW - 10
15.01.2021 11:00:00 15,6 13,1 11 6 SSE 1010,5 10
15.01.2021 10:00:00 15,0 8,0 11 6 S - 10
15.01.2021 09:00:00 15,0 8,0 15 8 S - 10
15.01.2021 08:00:00 15,0 8,3 24 13 S 1009,4 10
15.01.2021 07:00:00 15,0 9,0 34 18 S - 10
15.01.2021 06:00:00 11,0 6,0 18 10 SSW - 10
15.01.2021 05:00:00 11,2 6,1 16 9 S 1010,0 10
15.01.2021 04:00:00 8,0 3,0 15 8 S - 10
15.01.2021 03:00:00 8,0 2,0 21 11 SSE - 10
15.01.2021 02:00:00 8,2 2,5 16 9 S 1011,9 10
15.01.2021 01:00:00 9,0 2,0 16 9 SSE - 10
15.01.2021 00:00:00 9,0 5,0 16 9 SSE - 10
14.01.2021 23:00:00 9,2 4,7 13 7 S 1012,7 10
14.01.2021 22:00:00 10,0 4,0 11 6 S - 10
14.01.2021 21:00:00 10,0 6,0 13 7 S - 10
14.01.2021 20:00:00 9,6 5,7 13 7 S 1012,3 10
14.01.2021 19:00:00 11,0 7,0 13 7 W - 10
14.01.2021 18:00:00 12,0 7,0 18 10 WNW - 10
14.01.2021 17:00:00 12,2 7,7 22 12 WNW 1011,8 10
14.01.2021 16:00:00 12,0 8,0 31 17 NW - 10
14.01.2021 15:00:00 11,0 9,0 34 18 W - 10
14.01.2021 14:00:00 12,8 8,4 31 17 NW 1010,5 10
14.01.2021 13:00:00 14,0 6,0 42 23 WNW - 10
14.01.2021 12:00:00 15,0 4,0 48 26 WNW - 10
14.01.2021 11:00:00 14,2 5,3 46 25 W 1010,5 10
14.01.2021 10:00:00 14,0 7,0 44 24 W - 10
14.01.2021 09:00:00 12,0 9,0 16 9 W - 10
14.01.2021 08:00:00 13,0 6,8 22 12 WSW 1008,7 10
14.01.2021 07:00:00 12,0 8,0 22 12 WSW - 10
14.01.2021 06:00:00 12,0 8,0 16 9 WSW - 10
14.01.2021 05:00:00 11,0 7,7 22 12 W 1008,2 10
14.01.2021 04:00:00 - - - - - - -
14.01.2021 03:00:00 12,0 8,0 22 12 W - 10
14.01.2021 02:00:00 12,6 7,7 21 11 WSW 1009,6 10
14.01.2021 01:00:00 13,0 8,0 28 15 WSW - 10
14.01.2021 00:00:00 13,0 8,0 34 18 WSW - 10
13.01.2021 23:00:00 14,0 8,0 21 11 WNW 1009,6 10
13.01.2021 22:00:00 14,0 8,0 18 10 WSW - 10
13.01.2021 21:00:00 14,0 9,0 26 14 WSW - 10
13.01.2021 20:00:00 14,0 8,5 16 9 WSW 1009,5 10
13.01.2021 19:00:00 14,0 9,0 13 7 W - 10
13.01.2021 18:00:00 15,0 8,0 29 16 W - 10
13.01.2021 17:00:00 15,4 9,2 34 18 W 1008,9 10
13.01.2021 16:00:00 16,0 9,0 34 18 W - 10
13.01.2021 15:00:00 16,0 9,0 35 19 WNW - 10
13.01.2021 14:00:00 16,0 9,1 34 18 WNW 1008,2 10
13.01.2021 13:00:00 16,0 9,0 31 17 WNW - 10
13.01.2021 12:00:00 15,0 9,0 24 13 W - 10
13.01.2021 11:00:00 15,4 9,2 26 14 W 1009,1 10
13.01.2021 10:00:00 14,0 8,0 13 7 WSW - 10
13.01.2021 09:00:00 13,0 7,0 13 7 SSW - 10
13.01.2021 08:00:00 12,2 7,3 13 7 S 1008,6 10
13.01.2021 07:00:00 12,0 8,0 8 4 S - 10
13.01.2021 06:00:00 12,0 8,0 8 4 SSW - 10
13.01.2021 05:00:00 13,0 8,2 13 7 W 1007,9 10
13.01.2021 04:00:00 14,0 9,0 13 7 WNW - 10
13.01.2021 03:00:00 15,0 9,0 24 13 W - 10
13.01.2021 02:00:00 16,0 10,4 31 17 W 1007,8 10
13.01.2021 01:00:00 17,0 12,0 22 12 WNW - 10
13.01.2021 00:00:00 17,0 13,0 24 13 W - 10
12.01.2021 23:00:00 17,0 13,8 22 12 WNW 1007,5 10
12.01.2021 22:00:00 17,0 15,0 15 8 S - 10
12.01.2021 21:00:00 18,0 14,0 11 6 S - 10
12.01.2021 20:00:00 19,4 11,5 26 14 SW 1006,5 9
12.01.2021 19:00:00 19,0 12,0 28 15 S - 9
12.01.2021 18:00:00 19,0 13,0 34 18 S - 9
12.01.2021 17:00:00 19,0 13,4 22 12 S 1006,9 9
12.01.2021 16:00:00 19,0 14,0 37 20 S - 9
12.01.2021 15:00:00 20,0 12,0 42 23 S - 9
12.01.2021 14:00:00 20,2 14,0 35 19 S 1008,7 9
12.01.2021 13:00:00 20,0 14,0 26 14 S - 9
12.01.2021 12:00:00 20,0 14,0 28 15 S - 9
12.01.2021 11:00:00 19,8 14,3 31 17 S 1012,7 10
12.01.2021 10:00:00 19,0 15,0 18 10 SE - 10
12.01.2021 09:00:00 18,0 15,0 11 6 SSE - 10

tt = temperature
td = dewpoint
ff = wind speed
dd = wind direction
ppp = reduced air pressure
vv = visibility

Next stations